TimeCDT,TemperatureF,Dew PointF,Humidity,Sea Level PressureIn,VisibilityMPH,Wind Direction,Wind SpeedMPH,Gust SpeedMPH,PrecipitationIn,Events,Conditions,WindDirDegrees,DateUTC
12:53 AM,69.1,57.9,68,30.09,10.0,ENE,5.8,-,N/A,,Clear,60,2013-07-15 05:53:00
1:53 AM,68.0,57.9,70,30.08,10.0,NE,4.6,-,N/A,,Partly Cloudy,50,2013-07-15 06:53:00
2:53 AM,66.0,57.9,75,30.08,10.0,NE,6.9,-,N/A,,Clear,40,2013-07-15 07:53:00
3:53 AM,64.9,59.0,81,30.09,10.0,Calm,Calm,-,N/A,,Clear,0,2013-07-15 08:53:00
4:53 AM,64.0,59.0,84,30.10,10.0,Calm,Calm,-,N/A,,Clear,0,2013-07-15 09:53:00
5:53 AM,63.0,59.0,87,30.12,10.0,Calm,Calm,-,N/A,,Clear,0,2013-07-15 10:53:00
6:53 AM,63.0,60.1,90,30.13,8.0,Calm,Calm,-,N/A,,Clear,0,2013-07-15 11:53:00
7:53 AM,69.1,62.1,78,30.14,10.0,East,3.5,-,N/A,,Clear,80,2013-07-15 12:53:00
8:53 AM,73.9,63.0,68,30.15,10.0,East,4.6,-,N/A,,Clear,100,2013-07-15 13:53:00
9:53 AM,80.1,63.0,56,30.14,10.0,East,8.1,-,N/A,,Clear,100,2013-07-15 14:53:00
10:53 AM,82.0,64.0,54,30.15,10.0,East,5.8,-,N/A,,Clear,100,2013-07-15 15:53:00
11:53 AM,82.0,64.0,54,30.14,10.0,ESE,6.9,-,N/A,,Overcast,110,2013-07-15 16:53:00
12:53 PM,84.0,61.0,46,30.13,10.0,ESE,11.5,20.7,N/A,,Mostly Cloudy,110,2013-07-15 17:53:00
1:53 PM,89.1,61.0,39,30.11,10.0,East,18.4,25.3,N/A,,Scattered Clouds,100,2013-07-15 18:53:00
2:53 PM,89.1,62.1,40,30.09,10.0,East,17.3,23.0,N/A,,Mostly Cloudy,100,2013-07-15 19:53:00
3:53 PM,84.9,62.1,46,30.09,10.0,East,13.8,23.0,N/A,,Mostly Cloudy,100,2013-07-15 20:53:00
4:28 PM,73.4,64.4,73,30.13,2.5,SSW,10.4,36.8,0.06,Rain,Heavy Rain,200,2013-07-15 21:28:00
4:39 PM,75.2,69.8,83,30.12,10.0,South,3.5,-,0.06,Rain,Light Rain,180,2013-07-15 21:39:00
4:53 PM,79.0,69.1,72,30.11,10.0,SE,9.2,-,0.07,Rain,Light Rain,140,2013-07-15 21:53:00
5:53 PM,82.0,64.9,56,30.10,10.0,East,13.8,-,0.00,,Clear,90,2013-07-15 22:53:00
6:53 PM,79.0,64.0,60,30.11,10.0,East,8.1,-,N/A,,Clear,100,2013-07-15 23:53:00
7:53 PM,79.0,64.9,62,30.12,10.0,ESE,5.8,-,N/A,,Clear,120,2013-07-16 00:53:00
8:53 PM,75.0,66.0,73,30.12,10.0,SSE,4.6,-,N/A,,Clear,160,2013-07-16 01:53:00
9:53 PM,73.0,66.0,79,30.15,10.0,SSE,4.6,-,N/A,,Clear,150,2013-07-16 02:53:00
10:53 PM,73.0,64.0,73,30.17,10.0,SSW,3.5,-,N/A,,Mostly Cloudy,200,2013-07-16 03:53:00
11:53 PM,69.1,63.0,81,30.18,10.0,SW,4.6,-,N/A,,Clear,230,2013-07-16 04:53:00